"Pseudo-MPEC" for A10vq8q

Created 2021 Feb 28 15:07:03 UT using Find_Orb

Click here for an explanation of pseudo-MPECs

 
 Astrometry: 
     A10vq8q  C2021 02 22.27781 09 37 57.68 -21 29 06.3    ~2Q1M 19.0 GVNEOCP703
     A10vq8q  C2021 02 22.29367 09 38 01.84 -21 25 27.9    ~2Q1M 18.8 GVNEOCP703
     A10vq8q  C2021 02 22.45151909 38 47.26 -20 48 45.0    ~2MDq 18.77oVNEOCPT08
     A10vq8q  C2021 02 22.48597409 38 55.54 -20 40 56.8    ~2MDq 18.92oVNEOCPT08
     A10vq8q  C2021 02 22.49012209 38 56.61 -20 39 58.7    ~2MDq 18.91oVNEOCPT08
     A10vq8q  C2021 02 22.49524309 38 57.85 -20 38 48.7    ~2MDq 18.97oVNEOCPT08
     A10vq8q  C2021 02 22.53574 09 39 07.74 -20 29 37.9    ~2Q17 19.0 oVNEOCPT08
     A10vq8q  C2021 02 26.20977 09 51 31.12 -10 38 10.9    ~2R8M 19.1 GVNEOCPI52
     A10vq8q  C2021 02 26.21315 09 51 31.52 -10 37 46.9    ~2R8M 20.8 GVNEOCPI52
     A10vq8q |C2021 02 27T8]J_mew;C7M/#NgiA3(;Dk!$icEiAstrometry]Mhv@ibr^+c2n807
     A10vq8q |C2021 02 27@`0-P,A2!?#CG?B6]%=Lredacted;8o0S#M?qn[!0gvBhoyD8dZk807
     A10vq8q |C2021 02 27G:.MpFvh0*E^IpR)Q-9?^5aSi`clickliJZKtCSDihere)fT3187807
     A10vq8q |C2021 02 27'D@3+Z,iImC8Si(WI)x96B]?c7-NforODVMCXxOHHBE`P4B-]9j5807
     A10vq8q |C2021 02 27RZX5TuLaIU_Y\#explanation;VQ=XNb$P;eg.0#`j5PD0V_Yfx9807
     A10vq8q |C2021 02 27H;=2GZjuvbSL#n1NqLs,V=2#ux!4!W*iQSYLOB%VywJeAky'GCYs807

Station data:
(703) Catalina Sky Survey  (N32.417006 W110.732640)  US/Arizona.  Observers
   T. A. Pruyne, B. M. Africano, E. J. Christensen, G. A. Farneth, D. C.
   Fuls, A. R. Gibbs, A. D. Grauer, H. Gröller, J. A. Johnson, R. A.
   Kowalski, S. M. Larson, G. J. Leonard, D. Rankin, R. L. Seaman, F. C.
   Shelly. 0.68 m Schmidt + 10K CCD.
(807) Cerro Tololo Observatory, La Serena  (S30.169136 W70.805900)  Chile.
(I52) Steward Observatory, Mt. Lemmon Station  (N32.442547 W110.788920)
   US/Arizona.  Observers T. A. Pruyne, B. M. Africano, E. J. Christensen, G.
   A. Farneth, D. C. Fuls, A. R. Gibbs, A. D. Grauer, H. Gröller, J. A.
   Johnson, R. A. Kowalski, S. M. Larson, G. J. Leonard, D. Rankin, R. L.
   Seaman, F. C. Shelly. 1.0-m reflector + CCD.
(T08) ATLAS-MLO, Mauna Loa  (N19.536152 W155.576050)  US/Hawaii.  Observers
   L. Denneau, A. Heinze, H. Weiland, J. Tonry, H. Flewelling, A.
   Fitzsimmons, D. Young, B. Stalder. Measurers L. Denneau, A. Heinze, J.
   Tonry. 0.5-m f/2.0 Schmidt + CCD.

Orbital elements:  A10vq8q
   Perihelion 2020 Dec 26.292720 +/- 0.12435 TT =  7:01:31 (JD 2459209.792720)
Epoch 2021 Feb 27.0 TT = JDT 2459272.5   Earth MOID: 0.0271   Ve: 0.0091
M  37.61242122 +/- 0.3483285        Ma: 0.0343                AutoNEOCP
n   0.59980947 +/- 0.00437271       Peri.  215.37042 +/- 0.1937242
a   1.39249560 +/- 0.00676753       Node   212.48799 +/- 0.2015085
e   0.4763672 +/- 0.00349497        Incl.    2.13755 +/- 0.0196112
P   1.64/600.18d           H 23.8   G  0.15   U  9.1  
q 0.72915626 +/- 0.00132648    Q 2.05583493 +/- 0.0148951
From 15 observations 2021 Feb. 22-27; mean residual 0".85
Residuals in arcseconds: 
210222 703  .55-  1.7+    210222 T08  .40+  .62+    210227 807  .14-  .20-    
210222 703  1.5+  2.5-    210222 T08  .23+  1.6+    210227 807  .30+  .23-    
210222 T08  1.5-  .12+    210226 I52  .80-  .39-    210227 807  .33+  .15-    
210222 T08  .70-  1.3-    210226 I52  .17-  .32+    210227 807  .42+  .16-    
210222 T08  .32+  .30+    210227 807  .05+  .81+    210227 807  .50+  .06-    

Ephemerides (geocentric):
Date (UTC) HH   RA              Dec         delta   r     elong  mag " sig PA
---- -- -- --  -------------   -----------  ------ ------ -----  --- ---- ---
2021 02 28 15  09 56 09.111   -06 42 57.49  .10469 1.0901 160.9 20.0 1.03  18
2021 02 28 16  09 56 13.174   -06 39 34.95  .10500 1.0904 160.9 20.0 1.05  18
2021 02 28 17  09 56 17.216   -06 36 13.55  .10531 1.0908 160.9 20.0 1.07  18
2021 02 28 18  09 56 21.236   -06 32 53.27  .10563 1.0911 161.0 20.0 1.09  18
2021 02 28 19  09 56 25.235   -06 29 34.11  .10594 1.0914 161.0 20.0 1.11  17
2021 02 28 20  09 56 29.214   -06 26 16.05  .10625 1.0918 161.1 20.1 1.14  17
2021 02 28 21  09 56 33.171   -06 22 59.09  .10656 1.0921 161.1 20.1 1.16  17
2021 02 28 22  09 56 37.109   -06 19 43.21  .10687 1.0924 161.1 20.1 1.18  17
2021 02 28 23  09 56 41.026   -06 16 28.41  .10719 1.0927 161.2 20.1 1.20  17
2021 03 01 00  09 56 44.922   -06 13 14.69  .10750 1.0931 161.2 20.1 1.22  17
2021 03 01 01  09 56 48.799   -06 10 02.02  .10781 1.0934 161.2 20.1 1.25  17
2021 03 01 02  09 56 52.657   -06 06 50.41  .10812 1.0937 161.3 20.1 1.27  17
2021 03 01 03  09 56 56.494   -06 03 39.84  .10844 1.0941 161.3 20.1 1.29  17
2021 03 01 04  09 57 00.313   -06 00 30.31  .10875 1.0944 161.4 20.1 1.31  17
2021 03 01 05  09 57 04.112   -05 57 21.81  .10906 1.0947 161.4 20.1 1.33  16
2021 03 01 06  09 57 07.892   -05 54 14.33  .10938 1.0950 161.4 20.1 1.36  16
2021 03 01 07  09 57 11.653   -05 51 07.87  .10969 1.0954 161.5 20.1 1.38  16
2021 03 01 08  09 57 15.396   -05 48 02.40  .11001 1.0957 161.5 20.1 1.40  16
2021 03 01 09  09 57 19.120   -05 44 57.94  .11032 1.0960 161.5 20.1 1.42  16
2021 03 01 10  09 57 22.826   -05 41 54.46  .11063 1.0964 161.5 20.1 1.44  16
2021 03 01 11  09 57 26.514   -05 38 51.96  .11095 1.0967 161.6 20.1 1.46  16
2021 03 01 12  09 57 30.184   -05 35 50.44  .11126 1.0970 161.6 20.1 1.48  16
2021 03 01 13  09 57 33.836   -05 32 49.88  .11158 1.0973 161.6 20.2 1.50  16
2021 03 01 14  09 57 37.470   -05 29 50.29  .11189 1.0977 161.7 20.2 1.53  16
2021 03 01 15  09 57 41.087   -05 26 51.64  .11221 1.0980 161.7 20.2 1.55  16
2021 03 01 16  09 57 44.686   -05 23 53.94  .11252 1.0983 161.7 20.2 1.57  16
2021 03 01 17  09 57 48.269   -05 20 57.17  .11284 1.0987 161.8 20.2 1.59  16
2021 03 01 18  09 57 51.834   -05 18 01.34  .11316 1.0990 161.8 20.2 1.61  15
2021 03 01 19  09 57 55.383   -05 15 06.43  .11347 1.0993 161.8 20.2 1.63  15
2021 03 01 20  09 57 58.914   -05 12 12.43  .11379 1.0996 161.8 20.2 1.65  15
2021 03 01 21  09 58 02.429   -05 09 19.34  .11410 1.1000 161.9 20.2 1.67  15
2021 03 01 22  09 58 05.928   -05 06 27.15  .11442 1.1003 161.9 20.2 1.69  15
2021 03 01 23  09 58 09.411   -05 03 35.86  .11474 1.1006 161.9 20.2 1.71  15
2021 03 02 00  09 58 12.877   -05 00 45.46  .11505 1.1010 161.9 20.2 1.73  15
2021 03 02 01  09 58 16.327   -04 57 55.94  .11537 1.1013 162.0 20.2 1.75  15
2021 03 02 02  09 58 19.762   -04 55 07.29  .11569 1.1016 162.0 20.2 1.77  15
2021 03 02 03  09 58 23.181   -04 52 19.51  .11600 1.1019 162.0 20.2 1.79  15
2021 03 02 04  09 58 26.584   -04 49 32.60  .11632 1.1023 162.0 20.2 1.81  15
2021 03 02 05  09 58 29.972   -04 46 46.54  .11664 1.1026 162.1 20.2 1.83  15
2021 03 02 06  09 58 33.345   -04 44 01.32  .11696 1.1029 162.1 20.2 1.85  15
2021 03 02 07  09 58 36.702   -04 41 16.96  .11728 1.1033 162.1 20.3 1.87  15
2021 03 02 08  09 58 40.045   -04 38 33.42  .11759 1.1036 162.1 20.3 1.89  15
2021 03 02 09  09 58 43.372   -04 35 50.72  .11791 1.1039 162.1 20.3 1.91  15
2021 03 02 10  09 58 46.685   -04 33 08.85  .11823 1.1042 162.2 20.3 1.93  14
2021 03 02 11  09 58 49.983   -04 30 27.79  .11855 1.1046 162.2 20.3 1.95  14
2021 03 02 12  09 58 53.267   -04 27 47.54  .11887 1.1049 162.2 20.3 1.97  14
2021 03 02 13  09 58 56.536   -04 25 08.10  .11919 1.1052 162.2 20.3 1.99  14
2021 03 02 14  09 58 59.791   -04 22 29.46  .11951 1.1056 162.3 20.3 2.01  14